FW7499 Weather Reports


time (UTC)temp
F
wind
direction
speed
knots
gust
knots
rain 1hr
in
rain 24hr
in
rain mn
in
humidity
%
barometer
mb
20260831115506 73 257 0.0 1.7 0.00 0.00 0.00 91 1011.8
20260831115011 73 257 0.0 1.7 0.00 0.00 0.00 91 1011.5
20260831114508 73 257 0.0 0.9 0.00 0.00 0.00 91 1011.2
20260831114006 73 257 0.0 0.9 0.00 0.00 0.00 91 1011.4
20260831113514 73 258 0.0 1.7 0.00 0.00 0.00 90 1011.2
20260831113012 73 257 0.0 1.7 0.00 0.00 0.00 90 1011.2
20260831112506 74 258 0.0 1.7 0.00 0.00 0.00 90 1011.0
20260831112003 74 257 0.0 1.7 0.00 0.00 0.00 90 1011.0
20260831111513 74 257 0.0 1.7 0.00 0.00 0.00 90 1010.9
20260831111003 74 258 0.0 0.0 0.00 0.00 0.00 90 1010.8
20260831110506 74 257 0.0 0.0 0.00 0.00 0.00 90 1010.8
20260831110006 74 257 0.0 0.0 0.00 0.00 0.00 90 1010.8
20260831105510 74 258 0.0 0.0 0.00 0.00 0.00 89 1010.8
20260831105006 74 257 0.0 1.7 0.00 0.00 0.00 89 1010.9
20260831104522 74 257 0.0 1.7 0.00 0.00 0.00 89 1010.8
20260831104010 74 257 0.0 1.7 0.00 0.00 0.00 90 1010.8
20260831103505 74 258 0.0 1.7 0.00 0.00 0.00 89 1010.8
20260831103017 74 257 0.0 1.7 0.00 0.00 0.00 89 1010.8
20260831102511 74 257 0.0 0.0 0.00 0.00 0.00 90 1010.7
20260831102005 74 257 0.0 0.9 0.00 0.00 0.00 90 1010.7
20260831101507 74 258 0.0 1.7 0.00 0.00 0.00 90 1010.7
20260831101006 74 258 0.0 1.7 0.00 0.00 0.00 90 1010.5
20260831100504 74 258 0.0 0.0 0.00 0.00 0.00 90 1010.6
20260831100006 74 257 0.0 0.0 0.00 0.00 0.00 90 1010.6
20260831095503 74 257 0.0 0.0 0.00 0.00 0.00 90 1010.4
20260831095011 74 258 0.0 0.0 0.00 0.00 0.00 90 1010.4
20260831094516 73 257 0.0 0.0 0.00 0.00 0.00 91 1010.5
20260831094004 74 257 0.0 1.7 0.00 0.00 0.00 90 1010.3
20260831093511 74 258 0.0 1.7 0.00 0.00 0.00 90 1010.2
20260831093013 74 257 0.0 1.7 0.00 0.00 0.00 90 1010.1
20260831092513 74 258 0.0 1.7 0.00 0.00 0.00 90 1010.1
20260831092007 74 258 0.0 1.7 0.00 0.00 0.00 90 1010.1
20260831091507 74 258 0.0 0.0 0.00 0.00 0.00 90 1010.1
20260831091016 74 258 0.0 0.0 0.00 0.00 0.00 89 1010.1
20260831090508 74 257 0.0 0.0 0.00 0.00 0.00 89 1010.1
20260831090009 74 258 0.0 0.0 0.00 0.00 0.00 89 1010.1
20260831085509 74 257 0.0 0.0 0.00 0.00 0.00 89 1010.0
20260831085010 74 257 0.0 0.0 0.00 0.00 0.00 89 1010.0
20260831084518 75 257 0.0 1.7 0.00 0.00 0.00 88 1009.9
20260831084011 75 257 0.0 1.7 0.00 0.00 0.00 87 1009.9
20260831083507 75 257 0.0 1.7 0.00 0.00 0.00 88 1009.8
20260831083008 75 257 0.0 1.7 0.00 0.00 0.00 88 1009.7
20260831082513 75 257 0.0 0.9 0.00 0.00 0.00 88 1009.7
20260831082013 75 257 0.0 0.0 0.00 0.00 0.00 88 1009.7
20260831081524 75 258 0.0 1.7 0.00 0.00 0.00 88 1009.6
20260831081013 75 257 0.0 1.7 0.00 0.00 0.00 88 1009.6
20260831080512 75 257 0.0 0.0 0.00 0.00 0.00 88 1009.8
20260831080033 75 258 0.0 0.0 0.00 0.00 0.00 87 1009.7
20260831075507 76 257 0.0 0.0 0.00 0.00 0.00 86 1009.7
20260831075012 76 257 0.0 1.7 0.00 0.00 0.00 86 1009.7
20260831074510 76 258 0.0 1.7 0.00 0.00 0.00 86 1009.5
20260831074007 76 257 0.0 1.7 0.00 0.00 0.00 87 1009.6
20260831073508 76 352 0.0 0.9 0.00 0.00 0.00 87 1009.7
20260831073015 76 352 0.0 0.9 0.00 0.00 0.00 87 1009.8
20260831072516 76 352 0.0 0.9 0.00 0.00 0.00 87 1009.9
20260831072006 76 352 0.0 1.7 0.00 0.00 0.00 87 1009.9
20260831071544 76 352 0.0 1.7 0.00 0.00 0.00 87 1009.9
20260831071014 76 352 0.0 0.0 0.00 0.00 0.00 87 1009.8
20260831070512 76 352 0.0 0.0 0.00 0.00 0.00 87 1009.9
20260831070015 76 352 0.0 0.0 0.00 0.00 0.00 86 1009.9
20260831065514 76 352 0.0 0.0 0.00 0.00 0.00 86 1010.0
20260831065010 76 352 0.0 0.0 0.00 0.00 0.00 87 1010.0
20260831064532 76 352 0.0 0.0 0.00 0.00 0.00 87 1010.0
20260831064010 76 352 0.0 0.0 0.00 0.00 0.00 87 1010.0
20260831063510 76 352 0.0 0.0 0.00 0.00 0.00 86 1010.0
20260831063006 76 352 0.0 0.0 0.00 0.00 0.00 86 1010.0
20260831062508 77 352 0.0 0.0 0.00 0.00 0.00 86 1010.0
20260831062008 77 352 0.0 0.0 0.00 0.00 0.00 85 1010.0
20260831061504 77 352 0.0 1.7 0.00 0.00 0.00 85 1010.0
20260831061010 77 352 0.0 1.7 0.00 0.00 0.00 84 1009.8
20260831060505 77 352 0.0 1.7 0.00 0.00 0.00 84 1009.8
20260831060026 78 352 0.0 1.7 0.00 0.00 0.00 84 1009.8
20260831055507 78 352 0.0 0.9 0.00 0.00 0.00 84 1009.7
20260831055003 78 352 0.0 1.7 0.00 0.00 0.00 84 1009.8
20260831054507 78 352 0.0 1.7 0.00 0.00 0.00 84 1009.7
20260831054011 77 352 0.0 1.7 0.00 0.00 0.00 84 1009.6
20260831053506 77 352 0.9 1.7 0.00 0.00 0.00 85 1009.6
20260831053024 77 352 0.0 1.7 0.00 0.00 0.00 84 1009.6
20260831052507 77 352 0.0 1.7 0.00 0.00 0.00 84 1009.6
20260831052008 77 352 0.0 1.7 0.00 0.00 0.00 85 1009.4
20260831051515 77 352 0.0 2.6 0.00 0.00 0.00 85 1009.4
20260831051013 77 352 1.7 2.6 0.00 0.00 0.00 84 1009.4
20260831050512 78 286 0.0 1.7 0.00 0.00 0.00 83 1009.3
20260831050023 78 286 0.0 0.9 0.00 0.00 0.00 83 1009.3
20260831045514 78 286 0.0 0.0 0.00 0.00 0.00 83 1009.3
20260831045012 78 286 0.0 0.0 0.00 0.00 0.00 83 1009.3
20260831044509 78 286 0.0 0.0 0.00 0.00 0.00 82 1009.3
20260831044008 78 286 0.0 0.0 0.00 0.00 0.00 83 1009.3
20260831043504 78 286 0.0 0.0 0.00 0.00 0.00 83 1009.3
20260831043010 78 286 0.0 0.0 0.00 0.00 0.00 83 1009.3
20260831042509 78 286 0.0 0.0 0.00 0.00 0.00 83 1009.4
20260831042008 78 286 0.0 0.0 0.00 0.00 0.00 83 1009.3
20260831041513 78 286 0.0 0.0 0.00 0.00 0.00 83 1009.4
20260831041007 78 286 0.0 0.0 0.00 0.00 0.00 83 1009.4
20260831040509 78 286 0.0 0.0 0.00 0.00 0.00 82 1009.4
20260831040026 78 286 0.0 0.0 0.00 0.00 0.00 82 1009.5
20260831035515 78 286 0.0 0.0 0.00 0.00 0.00 82 1009.5
20260831035009 78 286 0.0 1.7 0.00 0.00 0.00 82 1009.6
20260831034523 78 286 0.0 1.7 0.00 0.00 0.00 81 1009.6
20260831034009 79 286 0.0 1.7 0.00 0.00 0.00 81 1009.7
20260831033517 79 286 0.0 1.7 0.00 0.00 0.00 80 1009.7
20260831033017 79 286 0.0 0.0 0.00 0.00 0.00 79 1009.7
20260831032510 79 286 0.0 0.0 0.00 0.00 0.00 79 1009.6
20260831032008 80 286 0.0 0.0 0.00 0.00 0.00 79 1009.6
20260831031513 80 286 0.0 0.0 0.00 0.00 0.00 78 1009.7
20260831031011 79 286 0.0 0.0 0.00 0.00 0.00 79 1009.8
20260831030513 79 286 0.0 0.0 0.00 0.00 0.00 79 1009.8
20260831030016 80 286 0.0 0.0 0.00 0.00 0.00 79 1009.9
20260831025510 80 286 0.0 0.0 0.00 0.00 0.00 79 1009.9
20260831025012 80 286 0.0 0.0 0.00 0.00 0.00 78 1009.9
20260831024515 80 286 0.0 0.0 0.00 0.00 0.00 77 1009.8
20260831024011 81 286 0.0 0.0 0.00 0.00 0.00 76 1009.8
20260831023513 81 286 0.0 0.0 0.00 0.00 0.00 77 1009.7
20260831023027 81 286 0.0 0.0 0.00 0.00 0.00 77 1009.7
20260831022515 81 286 0.0 0.0 0.00 0.00 0.00 76 1009.6
20260831022011 81 286 0.0 0.0 0.00 0.00 0.00 77 1009.6
20260831021529 81 286 0.0 0.0 0.00 0.00 0.00 76 1009.6
20260831021012 81 286 0.0 0.0 0.00 0.00 0.00 77 1009.5
20260831020510 81 286 0.0 0.0 0.00 0.00 0.00 77 1009.5
20260831020022 81 286 0.0 0.0 0.00 0.00 0.00 76 1009.5
20260831015512 81 286 0.0 0.0 0.00 0.00 0.00 76 1009.4
20260831015013 82 286 0.0 0.0 0.00 0.00 0.00 75 1009.3
20260831014525 82 286 0.0 0.0 0.00 0.00 0.00 73 1009.3
20260831014011 82 286 0.0 0.0 0.00 0.00 0.00 73 1009.1
20260831013514 83 286 0.0 0.0 0.00 0.00 0.00 72 1009.1
20260831013023 83 286 0.0 0.0 0.00 0.00 0.00 72 1009.2
20260831012509 83 286 0.0 0.0 0.00 0.00 0.00 72 1009.1
20260831012017 83 286 0.0 0.0 0.00 0.00 0.00 71 1009.1
20260831011526 83 286 0.0 0.0 0.00 0.00 0.00 71 1009.1
20260831011018 84 286 0.0 0.0 0.00 0.00 0.00 71 1009.1
20260831010517 84 286 0.0 0.0 0.00 0.00 0.00 71 1009.1
20260831010018 84 286 0.0 0.0 0.00 0.00 0.00 71 1009.0
20260831005513 84 286 0.0 0.0 0.00 0.00 0.00 70 1009.0
20260831005015 84 286 0.0 0.0 0.00 0.00 0.00 70 1008.9
20260831004518 84 286 0.0 0.0 0.00 0.00 0.00 69 1009.0
20260831004018 84 286 0.0 0.0 0.00 0.00 0.00 69 1009.0
20260831003509 85 286 0.0 0.0 0.00 0.00 0.00 69 1009.0
20260831003034 85 286 0.0 0.0 0.00 0.00 0.00 68 1009.0
20260831002514 86 286 0.0 0.0 0.00 0.00 0.00 67 1009.0
20260831002011 86 286 0.0 0.0 0.00 0.00 0.00 66 1009.0
20260831001521 86 286 0.0 1.7 0.00 0.00 0.00 65 1009.0
20260831001015 86 286 0.0 1.7 0.00 0.00 0.00 65 1009.0
20260831000518 87 298 0.0 1.7 0.00 0.00 0.00 64 1009.0
20260831000034 87 298 0.0 1.7 0.00 0.00 0.00 63 1009.0
20260830235513 88 306 0.9 1.7 0.00 0.00 0.00 64 1009.0
20260830235014 88 277 0.0 1.7 0.00 0.00 0.00 61 1009.0
20260830234527 88 277 0.0 3.5 0.00 0.00 0.00 62 1009.0
20260830234011 89 242 0.9 3.5 0.00 0.00 0.00 60 1009.0
20260830233514 89 165 0.0 1.7 0.00 0.00 0.00 62 1009.0
20260830233024 89 156 0.0 1.7 0.00 0.00 0.00 61 1008.9
20260830232511 90 157 0.0 1.7 0.00 0.00 0.00 60 1008.9
20260830232014 90 156 0.0 1.7 0.00 0.00 0.00 59 1008.9
20260830231524 91 323 0.9 1.7 0.00 0.00 0.00 56 1008.9
20260830231009 91 185 0.0 2.6 0.00 0.00 0.00 57 1008.8
20260830230512 91 241 0.9 2.6 0.00 0.00 0.00 58 1008.8
20260830230008 91 182 0.9 3.5 0.00 0.00 0.00 58 1008.7
20260830225506 91 291 0.0 3.5 0.00 0.00 0.00 58 1008.8
20260830225010 91 263 0.9 5.2 0.00 0.00 0.00 58 1008.7
20260830224514 91 306 0.0 5.2 0.00 0.00 0.00 57 1008.7
20260830224012 91 78 0.9 4.3 0.00 0.00 0.00 59 1008.7
20260830223512 91 292 0.9 4.3 0.00 0.00 0.00 55 1008.8
20260830223012 91 34 1.7 2.6 0.00 0.00 0.00 57 1008.7
20260830222513 91 236 0.9 2.6 0.00 0.00 0.00 56 1008.8
20260830222005 91 197 0.0 3.5 0.00 0.00 0.00 57 1008.8
20260830221508 91 202 0.9 4.3 0.00 0.00 0.00 55 1008.8
20260830221016 91 348 1.7 4.3 0.00 0.00 0.00 56 1008.7
20260830220515 91 40 0.0 4.3 0.00 0.00 0.00 56 1008.8
20260830220011 90 176 1.7 4.3 0.00 0.00 0.00 55 1008.7
20260830215513 90 124 0.9 4.3 0.00 0.00 0.00 58 1008.7
20260830215016 89 173 0.9 5.2 0.00 0.00 0.00 61 1008.7
20260830214514 90 304 0.9 5.2 0.00 0.00 0.00 56 1008.7
20260830214013 91 147 1.7 4.3 0.00 0.00 0.00 56 1008.6
20260830213508 90 218 0.9 3.5 0.00 0.00 0.00 56 1008.6
20260830213019 91 158 0.9 3.5 0.00 0.00 0.00 54 1008.6
20260830212508 91 317 0.9 3.5 0.00 0.00 0.00 52 1008.6
20260830212012 90 213 1.7 3.5 0.00 0.00 0.00 54 1008.6
20260830211526 91 334 0.9 3.5 0.00 0.00 0.00 52 1008.7
20260830211011 91 305 0.9 4.3 0.00 0.00 0.00 54 1008.8
20260830210510 90 160 1.7 4.3 0.00 0.00 0.00 56 1008.9
20260830210023 88 293 0.9 7.0 0.00 0.00 0.00 56 1009.0
20260830205509 88 215 0.0 7.0 0.00 0.00 0.00 54 1009.0
20260830205010 89 299 0.0 7.0 0.00 0.00 0.00 56 1009.1
20260830204519 89 298 2.6 7.0 0.00 0.00 0.00 53 1009.2
20260830204015 89 350 2.6 7.0 0.00 0.00 0.00 57 1009.3
20260830203514 88 282 1.7 4.3 0.00 0.00 0.00 57 1009.3
20260830203014 88 240 0.9 4.3 0.00 0.00 0.00 62 1009.3
20260830202506 87 308 0.9 3.5 0.00 0.00 0.00 59 1009.5
20260830202003 87 291 0.9 3.5 0.00 0.00 0.00 58 1009.3
20260830201504 87 260 1.7 4.3 0.00 0.00 0.00 58 1009.2
20260830201002 87 134 0.9 3.5 0.00 0.00 0.00 59 1009.0
20260830200504 89 207 0.9 2.6 0.00 0.00 0.00 56 1009.1
20260830200010 89 342 0.9 3.5 0.00 0.00 0.00 57 1009.1
20260830195502 89 352 0.9 2.6 0.00 0.00 0.00 58 1009.3
20260830195003 88 264 0.0 1.7 0.00 0.00 0.00 63 1009.5
20260830194507 86 180 0.9 1.7 0.00 0.00 0.00 62 1009.5
20260830194004 85 185 0.9 1.7 0.00 0.00 0.00 63 1009.7
20260830193503 85 332 0.0 3.5 0.00 0.00 0.00 65 1009.8
20260830193006 85 61 0.9 3.5 0.00 0.00 0.00 63 1009.8
20260830192505 85 236 0.9 1.7 0.00 0.00 0.00 63 1009.8
20260830192007 85 90 0.9 6.1 0.00 0.00 0.00 61 1009.8
20260830191503 85 188 2.6 6.1 0.00 0.00 0.00 61 1009.7
20260830191004 85 182 0.0 6.1 0.00 0.00 0.00 63 1009.7
20260830190503 85 267 1.7 4.3 0.00 0.00 0.00 62 1009.7
20260830190041 85 207 0.9 3.5 0.00 0.00 0.00 61 1009.3
20260830185503 87 260 0.9 3.5 0.00 0.00 0.00 57 1009.4
20260830185002 87 163 1.7 6.1 0.00 0.00 0.00 59 1009.4
20260830184508 87 313 1.7 6.1 0.00 0.00 0.00 58 1009.5
20260830184005 86 234 1.7 3.5 0.00 0.00 0.00 59 1009.5
20260830183503 85 332 1.7 4.3 0.00 0.00 0.00 58 1009.4
20260830183012 85 148 1.7 5.2 0.00 0.00 0.00 59 1009.4
20260830182508 86 267 0.9 5.2 0.00 0.00 0.00 58 1009.5
20260830182004 85 135 1.7 4.3 0.00 0.00 0.00 60 1009.6
20260830181518 85 48 1.7 3.5 0.00 0.00 0.00 58 1009.8
20260830181005 85 159 1.7 3.5 0.00 0.00 0.00 58 1010.0
20260830180504 85 98 1.7 7.0 0.00 0.00 0.00 57 1010.2
20260830180010 85 14 0.9 7.0 0.00 0.00 0.00 56 1010.0
20260830175502 86 188 2.6 7.0 0.00 0.00 0.00 57 1010.0
20260830175002 86 269 1.7 7.8 0.00 0.00 0.00 58 1010.1
20260830174503 86 199 2.6 7.8 0.00 0.00 0.00 57 1010.1
20260830174002 86 312 1.7 7.8 0.00 0.00 0.00 56 1010.1
20260830173505 86 296 1.7 7.8 0.00 0.00 0.00 56 1010.1
20260830173004 87 207 1.7 7.8 0.00 0.00 0.00 53 1010.1
20260830172507 87 172 1.7 8.7 0.00 0.00 0.00 55 1010.1
20260830172010 88 170 2.6 8.7 0.00 0.00 0.00 53 1010.1
20260830171505 87 175 1.7 7.0 0.00 0.00 0.00 56 1010.0
20260830171006 87 94 2.6 7.0 0.00 0.00 0.00 57 1010.0
20260830170509 86 205 0.9 6.1 0.00 0.00 0.00 56 1010.0
20260830170004 85 313 0.9 7.0 0.00 0.00 0.00 60 1010.0
20260830165512 85 136 0.9 7.0 0.00 0.00 0.00 57 1010.0
20260830165004 85 233 1.7 7.0 0.00 0.00 0.00 56 1010.0
20260830164515 86 333 3.5 7.0 0.00 0.00 0.00 54 1010.0
20260830164004 86 191 1.7 6.1 0.00 0.00 0.00 55 1010.0
20260830163505 86 213 1.7 7.0 0.00 0.00 0.00 55 1010.0
20260830163007 86 257 1.7 7.0 0.00 0.00 0.00 56 1010.0
20260830162507 86 248 1.7 4.3 0.00 0.00 0.00 55 1010.0
20260830162005 86 129 1.7 4.3 0.00 0.00 0.00 60 1009.9
20260830161506 85 9 1.7 4.3 0.00 0.00 0.00 55 1009.9
20260830161006 85 209 1.7 5.2 0.00 0.00 0.00 57 1009.9
20260830160508 83 289 1.7 7.8 0.00 0.00 0.00 60 1009.9
20260830160004 83 250 1.7 7.8 0.00 0.00 0.00 61 1009.8
20260830155503 82 247 0.9 5.2 0.00 0.00 0.00 62 1009.8
20260830155011 83 176 1.7 5.2 0.00 0.00 0.00 61 1009.8
20260830154515 83 168 0.9 4.3 0.00 0.00 0.00 63 1009.8
20260830154007 83 51 0.9 5.2 0.00 0.00 0.00 63 1009.8
20260830153512 82 220 1.7 5.2 0.00 0.00 0.00 64 1009.9
20260830153007 82 188 1.7 4.3 0.00 0.00 0.00 63 1009.9
20260830152513 82 101 1.7 4.3 0.00 0.00 0.00 63 1010.0
20260830152005 81 184 0.9 3.5 0.00 0.00 0.00 65 1009.8
20260830151508 81 192 0.9 3.5 0.00 0.00 0.00 65 1009.8
20260830151006 81 186 0.9 3.5 0.00 0.00 0.00 66 1009.8
20260830150507 80 240 0.9 3.5 0.00 0.00 0.00 71 1009.8
20260830150014 80 191 0.0 1.7 0.00 0.00 0.00 68 1009.8
20260830145512 79 83 0.9 2.6 0.00 0.00 0.00 71 1009.8
20260830145006 78 91 0.9 2.6 0.00 0.00 0.00 73 1009.8
20260830144512 78 97 0.9 2.6 0.00 0.00 0.00 72 1009.8
20260830144013 77 111 0.0 1.7 0.00 0.00 0.00 73 1010.0
20260830143517 77 111 0.0 1.7 0.00 0.00 0.00 73 1010.0
20260830143012 78 111 0.9 1.7 0.00 0.00 0.00 73 1009.8
20260830142508 78 85 0.9 0.9 0.00 0.00 0.00 72 1010.0
20260830142013 78 85 0.0 1.7 0.00 0.00 0.00 72 1010.0
20260830141523 77 111 0.0 1.7 0.00 0.00 0.00 71 1009.7
20260830141002 77 98 0.0 1.7 0.00 0.00 0.00 72 1009.6
20260830140508 76 99 0.9 1.7 0.00 0.00 0.00 73 1009.8
20260830140010 76 66 0.0 1.7 0.00 0.00 0.00 70 1009.8
20260830135508 76 66 0.0 1.7 0.00 0.00 0.00 72 1009.8
20260830135011 76 84 0.0 1.7 0.00 0.00 0.00 71 1009.8
20260830134525 77 109 0.0 1.7 0.00 0.00 0.00 72 1009.8
20260830134013 77 198 0.0 1.7 0.00 0.00 0.00 70 1009.8
20260830133506 77 196 0.0 1.7 0.00 0.00 0.00 71 1009.8
20260830133010 76 196 0.0 1.7 0.00 0.00 0.00 71 1009.9
20260830132513 76 195 0.0 1.7 0.00 0.00 0.00 70 1009.8
20260830132007 75 215 0.0 1.7 0.00 0.00 0.00 73 1010.0
20260830131508 75 215 0.0 1.7 0.00 0.00 0.00 74 1010.0
20260830131014 75 215 0.0 1.7 0.00 0.00 0.00 74 1010.0
20260830130513 75 215 0.0 1.7 0.00 0.00 0.00 72 1010.0
20260830130007 75 215 0.0 1.7 0.00 0.00 0.00 73 1010.0
20260830125508 76 212 0.0 2.6 0.00 0.00 0.00 72 1009.9
20260830125010 76 212 0.0 2.6 0.00 0.00 0.00 70 1010.0
20260830124517 76 269 0.0 1.7 0.00 0.00 0.00 70 1009.9
20260830124011 76 286 0.0 1.7 0.00 0.00 0.00 69 1010.0
20260830123508 76 286 0.0 1.7 0.00 0.00 0.00 70 1009.9
20260830123024 76 152 0.0 1.7 0.00 0.00 0.00 70 1009.9
20260830122508 75 140 0.0 1.7 0.00 0.00 0.00 71 1009.9
20260830122012 75 140 0.0 1.7 0.00 0.00 0.00 72 1009.8
20260830121536 75 140 0.0 1.7 0.00 0.00 0.00 72 1009.8
20260830121009 75 140 0.0 1.7 0.00 0.00 0.00 71 1009.9
20260830120511 76 140 0.0 1.7 0.00 0.00 0.00 69 1010.1
20260830120026 76 140 0.0 1.7 0.00 0.00 0.00 68 1010.1